SCP
0 0 0 0 0 0 0 0 0 0 0 0 0 1 1 0 0 0 0 0 0 0 0 0 0 0 0 0 0 0 0 1 1 0 0 0 0 0 0 1 1 0 0 0
0 0 0 0 0 0 0 0 0 0 0 0 0 0 0 0 0 0 0 0 0 0 0 0 0 0 0 0 0 0 0 0 1 0 0 0 0 0 0 0 0 0 0 0
0 0 0 0 0 0 0 0 0 0 0 0 0 0 0 0 0 0 0 0 0 0 0 0 0 0 0 0 0 0 0 0 1 0 0 0 0 0 0 0 0 0 0 0
0 0 0 0 0 0 0 0 0 0 0 0 0 0 0 0 0 0 0 0 0 0 0 0 0 0 0 0 0 0 1 1 1 0 0 0 0 0 0 0 0 0 0 0
0 0 0 0 0 0 0 0 0 0 0 0 0 0 0 0 0 0 0 0 0 0 0 0 0 0 0 0 0 0 1 1 1 0 0 0 0 0 0 0 0 0 0 0
0 0 0 0 0 0 0 0 0 0 0 0 0 0 0 0 0 0 0 0 0 0 0 0 0 0 0 0 0 0 0 0 0 0 0 0 0 0 0 0 0 0 0 0
0 0 0 0 0 0 0 0 0 0 0 0 0 0 0 0 0 0 0 0 0 0 0 0 0 0 0 0 0 0 0 0 0 0 0 0 0 0 0 0 0 0 0 0
0 0 0 0 0 0 0 0 0 0 0 0 0 0 0 0 0 0 0 0 0 0 0 0 0 0 0 0 0 0 0 0 0 0 0 0 0 0 0 0 0 0 0 0
0 0 0 0 0 0 0 0 0 0 0 0 0 0 0 0 0 0 0 0 0 0 0 0 0 0 0 0 0 0 0 0 0 0 0 0 0 0 0 0 0 0 0 0
0 0 0 0 0 0 0 0 0 0 0 0 0 0 0 0 0 0 0 0 0 0 0 0 0 0 0 0 0 0 0 0 0 0 0 0 0 0 0 0 0 0 0 0
0 0 0 0 0 0 0 0 0 0 0 0 0 0 0 0 0 0 0 0 0 0 0 0 0 0 0 0 0 0 0 0 0 0 0 0 0 0 0 0 0 0 0 0
0 0 0 0 0 0 0 0 0 0 0 0 0 0 0 0 0 0 0 0 0 0 0 0 0 0 0 0 0 0 0 0 0 0 0 0 0 0 0 0 0 0 0 0
0 0 0 0 0 0 0 0 0 0 0 0 0 0 0 0 0 0 0 0 0 0 0 0 0 0 0 0 0 0 0 0 0 0 0 0 0 0 0 0 0 0 0 0
0 0 0 0 0 0 0 0 0 0 0 0 0 0 0 0 0 0 0 0 0 0 0 0 0 0 0 0 0 0 0 0 0 0 0 0 0 0 0 0 0 0 0 0
0 0 0 0 0 0 0 0 0 0 0 0 -0 0 0 0 0 0 0 0 0 0 0 0 0 0 0 0 0 0 0 0 0 0 0 0 0 0 0 0 0 0 0 0
0 0 0 0 0 0 0 0 0 0 0 0 0 0 0 0 0 0 0 0 0 0 0 0 0 0 0 0 0 0 0 0 0 0 0 0 0 0 0 0 0 0 0 0
0 0 0 0 0 0 0 0 0 0 0 0 0 0 0 0 0 0 0 0 0 0 0 0 0 0 0 0 0 0 0 0 0 0 0 0 0 0 0 0 0 0 0 0
0 0 0 0 0 0 0 0 0 0 0 0 0 0 0 0 0 0 0 0 0 0 0 0 0 0 0 0 0 0 0 0 0 0 0 0 0 0 0 0 0 0 0 0
0 0 0 0 0 0 0 0 0 0 0 0 0 0 0 0 0 0 0 0 0 0 0 0 0 0 0 0 0 0 0 0 0 0 0 0 0 0 0 0 0 0 0 0
0 0 0 0 0 0 0 0 0 0 0 0 0 0 0 0 0 0 0 0 0 0 0 0 0 0 0 0 0 0 0 0 0 0 0 0 0 0 0 0 0 0 0 0
0 0 0 0 0 0 0 0 0 0 0 0 0 0 0 0 0 0 0 0 0 0 0 0 0 0 0 0 0 0 0 0 0 0 0 0 0 0 0 0 0 0 0 0
0 0 0 0 0 0 0 0 0 0 0 0 0 0 0 0 0 0 0 0 0 0 0 0 0 0 0 0 0 0 0 0 0 0 0 0 0 0 0 0 0 0 0 0
0 0 0 0 0 0 0 0 0 0 0 0 0 0 0 0 0 0 0 0 0 0 0 0 0 0 0 0 0 0 0 0 0 0 0 0 0 0 0 0 0 0 0 0
0 0 0 0 0 0 0 0 0 0 0 0 0 0 0 0 0 0 0 0 0 0 0 0 0 0 0 0 0 0 0 0 0 0 0 0 0 0 0 0 0 0 0 0
0 0 0 0 0 0 0 0 0 0 0 0 0 0 0 0 0 0 0 0 0 0 0 0 0 0 0 0 0 0 0 0 0 0 0 0 0 0 0 0 0 0 0 0
0 0 0 0 0 0 0 0 0 0 0 0 0 0 0 0 0 0 0 0 0 0 0 0 0 0 0 0 0 0 0 0 0 0 0 0 0 0 0 0 0 0 0 0
Wind_Speed
13 9 6 6 9 7 8 9 9 7 5 3 6 9 9 9 9 9 8 8 8 8 8 7 6 6 7 5 4 3 3 4 4 4 5 4 4 4 3 1 3 3 3 4
4 7 11 12 12 8 7 3 5 2 4 6 4 8 10 8 8 9 10 9 9 9 8 6 5 5 4 4 2 1 3 4 4 4 5 4 4 4 4 2 1 1 2 3
4 11 17 16 10 7 8 9 4 3 6 7 4 5 7 7 8 8 9 8 8 8 7 5 3 2 1 1 0 2 2 2 4 5 5 6 5 5 4 4 2 2 3 3
6 6 9 9 8 8 3 6 7 4 5 4 3 3 5 7 8 9 9 8 7 5 5 4 2 0 2 2 2 2 2 3 3 4 6 8 8 7 7 5 4 5 5 5
9 8 7 7 6 7 4 4 2 5 4 6 6 5 4 7 7 8 9 8 6 5 4 3 2 2 3 4 4 3 3 3 4 5 6 7 7 7 6 7 8 8 7 6
17 10 6 6 6 7 7 4 4 10 8 5 3 2 5 8 11 10 9 7 5 3 2 2 2 2 2 4 4 4 4 4 4 5 6 6 7 7 8 9 9 8 5 4
14 9 8 5 6 7 8 7 3 4 2 7 7 5 5 8 9 8 7 5 3 1 2 1 2 4 4 5 4 4 5 5 5 5 5 6 7 8 9 9 7 7 6 6
3 4 5 5 6 6 8 7 4 6 5 4 7 5 4 7 7 5 3 2 0 1 3 4 5 5 5 6 6 5 5 5 5 5 6 5 7 7 6 7 8 8 7 7
4 4 3 3 5 7 9 10 11 8 8 1 7 6 5 5 5 3 2 2 4 5 7 7 8 8 8 7 6 6 5 5 5 6 6 7 6 6 7 7 8 8 7 8
9 9 4 2 3 1 7 9 8 8 8 7 4 7 5 4 3 5 6 6 7 7 8 10 10 9 9 8 7 6 6 6 6 6 6 8 6 6 6 8 8 8 8 8
7 7 8 5 5 7 7 8 8 8 8 8 6 7 8 4 4 5 6 7 7 9 10 10 9 9 9 9 8 7 7 7 6 6 6 6 7 7 7 7 8 7 7 8
7 6 7 9 10 7 4 5 6 7 8 8 7 7 4 3 6 7 8 8 8 8 9 9 9 9 9 10 10 9 8 8 7 6 6 7 7 7 8 9 8 7 8 8
9 5 5 4 4 8 5 3 4 6 7 7 8 5 1 5 9 9 9 8 8 8 9 9 9 9 9 10 10 10 10 10 9 8 7 8 9 9 8 9 9 8 8 9
5 6 7 7 5 5 6 6 4 5 7 8 9 10 9 11 10 10 8 7 8 8 8 9 8 7 8 8 8 9 10 10 10 10 9 9 9 9 9 9 9 9 9 9
4 8 9 10 9 7 8 8 7 6 7 8 9 10 9 10 10 9 8 9 9 8 9 9 9 8 7 8 8 9 9 9 9 10 11 10 10 9 10 9 10 10 10 12
1 6 11 12 12 9 10 9 7 6 6 8 9 9 9 10 10 9 9 9 8 8 10 11 11 10 10 9 9 9 9 9 8 10 11 10 10 11 10 10 11 10 10 10
5 5 9 12 11 12 9 5 2 5 7 8 9 8 9 10 10 9 9 7 7 9 11 11 11 10 9 9 8 8 9 9 10 10 11 11 11 11 11 13 12 12 11 11
6 6 6 11 13 13 7 0 1 3 5 7 7 6 9 9 8 7 8 8 8 9 10 11 11 11 10 10 10 9 10 10 10 11 11 11 11 13 12 12 13 12 10 10
8 5 7 9 12 11 4 3 1 2 7 6 4 7 9 10 10 7 7 7 7 8 9 9 11 12 11 11 10 11 11 11 11 12 11 12 13 14 13 13 13 11 10 10
6 6 7 10 13 15 12 6 6 2 2 8 6 7 9 9 8 5 8 8 8 8 8 9 10 11 10 9 10 11 11 11 12 12 13 13 13 13 14 13 12 11 9 10
8 9 11 11 13 9 7 8 2 6 4 3 6 7 7 6 6 7 8 7 7 8 9 9 10 10 9 9 9 10 11 11 12 12 13 14 13 13 13 11 9 9 9 9
8 9 9 10 10 4 5 1 5 4 1 3 5 5 5 5 6 6 7 7 7 8 9 10 9 9 8 9 9 11 11 11 12 13 14 14 14 13 11 10 10 9 9 9
7 7 5 5 6 1 3 5 4 2 2 3 5 5 5 5 6 6 6 6 7 8 9 9 10 10 9 8 8 10 10 11 12 14 14 14 14 12 10 10 10 9 7 6
9 7 6 7 8 7 8 8 4 3 3 3 3 3 4 5 6 6 6 6 7 7 8 9 10 11 10 9 10 9 10 10 12 14 14 13 13 12 10 7 7 7 6 6
12 11 11 12 10 10 9 7 5 4 5 5 4 4 4 4 5 5 5 5 6 7 7 8 9 9 11 10 9 9 10 10 12 13 13 13 12 11 9 8 6 7 4 3
12 11 9 9 8 6 7 8 7 6 6 6 6 5 4 4 4 5 5 5 6 7 7 8 9 10 11 10 9 9 9 10 11 12 12 10 10 9 8 8 7 3 3 2
Wind_Direction
235 239 311 314 282 271 219 194 181 213 248 268 154 141 142 145 145 134 131 126 123 117 118 119 120 115 108 98 86 61 36 34 359 12 346 335 335 337 315 319 66 24 5 348
295 341 304 268 256 270 273 256 154 189 335 303 186 151 141 150 142 139 139 141 139 133 132 135 138 128 115 111 102 128 44 28 357 5 319 302 322 313 293 331 23 360 8 339
168 208 243 264 279 298 325 346 332 245 236 252 240 153 131 137 138 147 143 143 139 140 139 140 138 127 125 110 53 34 40 7 7 345 318 331 324 310 316 335 322 348 334 303
319 212 236 280 307 315 334 297 286 268 251 273 235 200 173 175 175 168 157 159 153 147 150 154 174 230 308 343 354 35 29 15 0 341 336 331 316 311 321 323 329 330 312 291
303 293 289 291 301 297 274 219 302 356 349 331 13 358 234 186 191 184 173 167 162 166 171 167 235 274 317 341 348 4 14 12 360 347 329 322 316 322 321 321 314 308 294 268
307 301 294 305 303 298 297 299 27 34 26 346 281 234 234 195 194 188 178 164 169 181 203 212 256 291 325 333 341 353 2 357 354 340 326 315 315 314 311 302 292 289 286 285
305 311 313 311 321 340 312 301 324 7 71 252 236 230 218 188 170 162 152 154 161 194 255 282 323 342 346 340 345 351 352 353 347 330 317 313 312 307 294 291 303 316 318 316
281 279 287 335 339 320 297 302 305 302 281 215 185 208 147 123 107 106 102 91 75 323 359 354 354 355 351 348 351 350 348 342 334 322 313 309 299 298 305 321 326 313 301 294
312 313 284 11 331 332 327 333 331 310 313 317 147 135 110 139 149 125 48 5 3 12 360 354 358 354 357 355 353 348 345 339 332 321 309 292 295 316 316 309 297 296 301 305
330 326 338 354 277 307 328 330 341 335 337 341 78 116 140 158 71 27 360 6 15 6 359 360 356 351 352 347 345 345 345 339 327 316 313 317 325 311 302 304 301 297 293 291
347 320 318 320 1 354 340 357 355 340 346 335 2 80 103 78 39 9 3 12 11 4 357 350 347 350 346 339 338 341 337 330 324 321 319 314 309 310 305 297 295 298 300 300
355 326 332 351 11 334 320 2 352 347 343 326 331 99 84 57 55 36 15 14 12 3 350 346 345 345 341 337 336 333 331 324 321 322 319 313 311 305 301 301 302 300 297 295
347 325 317 340 344 290 296 0 353 338 309 310 326 90 168 58 44 31 19 6 358 357 352 346 345 343 336 335 331 327 322 322 323 321 317 314 311 307 305 303 301 298 295 292
286 293 306 324 337 323 319 321 341 333 328 331 344 358 7 37 21 10 1 354 354 356 354 347 344 337 334 329 327 322 319 322 320 321 317 311 308 307 304 302 299 297 295 293
283 306 319 317 319 315 315 318 322 320 319 314 329 333 18 31 9 1 354 354 349 351 348 342 336 331 329 327 323 318 318 320 323 318 313 310 307 305 301 299 298 296 293 292
225 308 310 307 307 294 289 293 280 288 297 299 310 324 25 15 3 353 345 337 338 346 341 336 333 332 328 324 318 318 319 322 321 313 310 308 306 304 302 300 296 294 293 292
294 297 305 304 306 298 299 308 281 323 325 325 319 340 13 356 346 337 329 334 354 346 338 336 335 328 323 319 320 323 321 320 318 313 310 310 309 307 304 304 303 298 296 293
258 288 294 292 300 295 309 247 293 320 323 308 305 5 10 345 346 2 39 29 356 342 341 338 329 324 324 325 325 327 321 319 318 316 315 315 312 308 305 303 299 295 293 291
227 250 282 294 294 298 308 223 186 335 313 327 13 12 346 347 329 86 56 14 356 351 340 330 325 324 325 323 330 326 320 320 319 319 319 316 313 308 304 302 299 298 295 292
220 211 250 274 288 295 306 104 106 316 354 54 27 356 344 336 322 3 18 3 359 344 333 327 326 326 323 329 330 323 321 323 323 323 319 313 308 304 302 298 297 297 295 292
225 231 243 266 276 291 70 106 271 312 61 10 354 349 335 350 329 329 337 349 345 335 331 331 331 327 327 328 328 322 322 326 328 323 316 311 308 304 298 296 299 299 296 295
283 275 268 271 279 305 110 286 333 3 357 329 336 329 336 328 315 321 334 339 338 335 334 334 329 327 327 330 330 324 327 330 327 321 316 313 310 308 306 306 303 301 298 298
286 292 300 305 321 132 253 282 304 301 283 300 309 329 331 315 314 323 330 338 336 333 334 331 330 327 328 333 333 327 332 331 325 320 318 315 311 306 303 303 305 305 303 304
308 339 312 295 289 282 284 292 285 265 250 263 293 302 297 299 309 317 327 331 331 334 329 331 330 328 328 334 335 334 334 331 323 320 318 314 311 308 310 308 305 307 311 319
300 291 278 274 274 274 273 281 278 258 234 230 249 262 268 282 295 309 320 328 331 325 327 329 327 327 328 333 331 337 337 332 324 319 316 315 313 311 311 309 306 307 326 335
285 290 295 298 303 293 291 279 258 234 232 235 241 254 265 276 291 305 315 324 319 321 326 327 328 328 327 328 331 337 337 332 324 318 317 315 313 314 313 315 316 309 281 246